| time (UTC) | temp F | wind direction | speed MPH | gust MPH | rain 1hr in | rain 24hr in | rain mn in | humidity % | barometer mb |
| 20260507005523 | 58 | 278 | 4.0 | 7.0 | 0.00 | 0.22 | 0.22 | 88 | 1014.4 |
| 20260507004528 | 58 | 244 | 2.0 | 4.0 | 0.00 | 0.22 | 0.22 | 88 | 1014.2 |
| 20260507003532 | 58 | 235 | 2.0 | 3.0 | 0.00 | 0.22 | 0.22 | 87 | 1013.9 |
| 20260507002539 | 59 | 278 | 4.0 | 8.0 | 0.00 | 0.22 | 0.22 | 87 | 1013.8 |
| 20260507001524 | 59 | 303 | 5.0 | 9.0 | 0.00 | 0.22 | 0.22 | 87 | 1013.7 |
| 20260507000529 | 59 | 292 | 7.0 | 10.0 | 0.00 | 0.22 | 0.22 | 86 | 1013.7 |
| 20260506235516 | 60 | 317 | 8.0 | 11.0 | 0.00 | 0.22 | 0.22 | 86 | 1013.0 |
| 20260506234541 | 60 | 297 | 6.0 | 9.0 | 0.00 | 0.22 | 0.22 | 87 | 1012.6 |
| 20260506233526 | 61 | 294 | 5.0 | 7.0 | 0.00 | 0.22 | 0.22 | 87 | 1012.2 |
| 20260506232530 | 61 | 297 | 6.0 | 11.0 | 0.00 | 0.22 | 0.22 | 86 | 1012.4 |
| 20260506231516 | 62 | 290 | 7.0 | 9.0 | 0.00 | 0.22 | 0.22 | 87 | 1012.3 |
| 20260506230522 | 62 | 303 | 5.0 | 8.0 | 0.00 | 0.22 | 0.22 | 87 | 1012.2 |
| 20260506225526 | 63 | 290 | 4.0 | 6.0 | 0.00 | 0.22 | 0.22 | 87 | 1012.1 |
| 20260506224531 | 63 | 296 | 4.0 | 5.0 | 0.00 | 0.22 | 0.22 | 87 | 1012.2 |
| 20260506223517 | 64 | 288 | 4.0 | 7.0 | 0.00 | 0.22 | 0.22 | 86 | 1012.1 |
| 20260506222523 | 64 | 290 | 4.0 | 6.0 | 0.00 | 0.22 | 0.22 | 86 | 1011.9 |
| 20260506221526 | 64 | 257 | 4.0 | 6.0 | 0.00 | 0.22 | 0.22 | 84 | 1011.8 |
| 20260506220552 | 65 | 254 | 5.0 | 8.0 | 0.00 | 0.22 | 0.22 | 84 | 1011.7 |
| 20260506215519 | 65 | 270 | 6.0 | 8.0 | 0.00 | 0.22 | 0.22 | 87 | 1011.6 |
| 20260506214523 | 65 | 252 | 3.0 | 6.0 | 0.00 | 0.22 | 0.22 | 99 | 1011.3 |
| 20260506213529 | 64 | 242 | 4.0 | 6.0 | 0.00 | 0.22 | 0.22 | 99 | 1011.3 |
| 20260506212533 | 64 | 257 | 4.0 | 5.0 | 0.00 | 0.22 | 0.22 | 99 | 1011.0 |
| 20260506211521 | 65 | 259 | 3.0 | 4.0 | 0.00 | 0.22 | 0.22 | 98 | 1010.7 |
| 20260506210524 | 65 | 248 | 4.0 | 7.0 | 0.00 | 0.22 | 0.22 | 96 | 1010.6 |
| 20260506205530 | 65 | 243 | 4.0 | 6.0 | 0.00 | 0.22 | 0.22 | 95 | 1010.5 |
| 20260506204515 | 66 | 218 | 3.0 | 5.0 | 0.00 | 0.22 | 0.22 | 93 | 1010.5 |
| 20260506203520 | 66 | 257 | 4.0 | 6.0 | 0.00 | 0.22 | 0.22 | 92 | 1010.3 |
| 20260506202525 | 67 | 252 | 6.0 | 9.0 | 0.00 | 0.22 | 0.22 | 91 | 1010.3 |
| 20260506201524 | 68 | 257 | 6.0 | 9.0 | 0.00 | 0.22 | 0.22 | 91 | 1010.4 |
| 20260506200516 | 67 | 258 | 5.0 | 7.0 | 0.00 | 0.22 | 0.22 | 93 | 1010.5 |
| 20260506195541 | 69 | 244 | 6.0 | 10.0 | 0.00 | 0.22 | 0.22 | 91 | 1010.6 |
| 20260506194520 | 68 | 234 | 4.0 | 7.0 | 0.00 | 0.22 | 0.22 | 94 | 1010.5 |
| 20260506193519 | 69 | 256 | 6.0 | 9.0 | 0.00 | 0.22 | 0.22 | 92 | 1010.5 |
| 20260506192517 | 67 | 240 | 7.0 | 10.0 | 0.00 | 0.22 | 0.22 | 94 | 1010.7 |
| 20260506191516 | 65 | 245 | 6.0 | 10.0 | 0.00 | 0.22 | 0.22 | 98 | 1010.7 |
| 20260506190528 | 64 | 237 | 6.0 | 9.0 | 0.00 | 0.22 | 0.22 | 99 | 1010.8 |
| 20260506185531 | 64 | 256 | 6.0 | 10.0 | 0.00 | 0.22 | 0.22 | 99 | 1010.8 |
| 20260506184539 | 64 | 209 | 6.0 | 9.0 | 0.00 | 0.22 | 0.22 | 98 | 1011.0 |
| 20260506183523 | 65 | 238 | 6.0 | 8.0 | 0.00 | 0.22 | 0.22 | 96 | 1011.0 |
| 20260506182528 | 65 | 203 | 6.0 | 8.0 | 0.00 | 0.22 | 0.22 | 96 | 1010.9 |
| 20260506181533 | 66 | 251 | 8.0 | 10.0 | 0.00 | 0.22 | 0.22 | 93 | 1010.9 |
| 20260506180540 | 66 | 225 | 7.0 | 9.0 | 0.00 | 0.22 | 0.22 | 93 | 1010.9 |
| 20260506175525 | 66 | 235 | 7.0 | 9.0 | 0.00 | 0.22 | 0.22 | 92 | 1010.9 |
| 20260506174529 | 67 | 239 | 7.0 | 11.0 | 0.00 | 0.22 | 0.22 | 90 | 1010.7 |
| 20260506173536 | 68 | 238 | 9.0 | 18.0 | 0.00 | 0.22 | 0.22 | 89 | 1010.7 |
| 20260506172520 | 66 | 230 | 7.0 | 12.0 | 0.00 | 0.22 | 0.22 | 92 | 1010.7 |
| 20260506171545 | 67 | 237 | 6.0 | 9.0 | 0.00 | 0.22 | 0.22 | 92 | 1010.7 |
| 20260506170531 | 67 | 248 | 7.0 | 13.0 | 0.00 | 0.22 | 0.22 | 93 | 1010.7 |
| 20260506165518 | 63 | 212 | 6.0 | 9.0 | 0.00 | 0.22 | 0.22 | 99 | 1010.9 |
| 20260506164522 | 63 | 219 | 7.0 | 11.0 | 0.00 | 0.22 | 0.22 | 99 | 1010.8 |
| 20260506163526 | 64 | 240 | 10.0 | 12.0 | 0.00 | 0.22 | 0.22 | 95 | 1010.8 |
| 20260506162531 | 64 | 244 | 7.0 | 11.0 | 0.00 | 0.22 | 0.22 | 94 | 1010.9 |
| 20260506161518 | 64 | 232 | 8.0 | 12.0 | 0.00 | 0.22 | 0.22 | 93 | 1010.8 |
| 20260506160603 | 65 | 217 | 7.0 | 15.0 | 0.00 | 0.22 | 0.22 | 92 | 1010.7 |
| 20260506155548 | 67 | 237 | 7.0 | 11.0 | 0.00 | 0.22 | 0.22 | 90 | 1010.7 |
| 20260506154532 | 67 | 215 | 7.0 | 12.0 | 0.00 | 0.22 | 0.22 | 90 | 1010.1 |
| 20260506153539 | 64 | 202 | 6.0 | 10.0 | 0.02 | 0.22 | 0.22 | 94 | 1010.4 |
| 20260506152524 | 63 | 229 | 6.0 | 10.0 | 0.04 | 0.22 | 0.22 | 96 | 1010.6 |
| 20260506151529 | 63 | 240 | 5.0 | 7.0 | 0.06 | 0.22 | 0.22 | 98 | 1010.5 |
| 20260506150516 | 61 | 217 | 5.0 | 10.0 | 0.08 | 0.22 | 0.22 | 99 | 1010.1 |
| 20260506145520 | 61 | 183 | 5.0 | 7.0 | 0.10 | 0.22 | 0.22 | 99 | 1010.3 |
| 20260506144525 | 60 | 210 | 6.0 | 10.0 | 0.12 | 0.23 | 0.22 | 99 | 1010.8 |
| 20260506143711 | 59 | 215 | 6.0 | 9.0 | 0.14 | 0.21 | 0.20 | 99 | 1011.0 |
| 20260506142516 | 59 | 185 | 7.0 | 12.0 | 0.14 | 0.19 | 0.18 | 99 | 1011.3 |
| 20260506141521 | 59 | 219 | 6.0 | 11.0 | 0.13 | 0.17 | 0.16 | 99 | 1011.3 |
| 20260506140526 | 60 | 210 | 4.0 | 7.0 | 0.12 | 0.15 | 0.14 | 99 | 1011.2 |
| 20260506135531 | 60 | 181 | 4.0 | 7.0 | 0.10 | 0.13 | 0.12 | 99 | 1011.1 |
| 20260506134538 | 60 | 196 | 5.0 | 8.0 | 0.08 | 0.11 | 0.10 | 99 | 1011.1 |
| 20260506133522 | 61 | 199 | 4.0 | 7.0 | 0.04 | 0.07 | 0.06 | 96 | 1010.9 |
| 20260506132528 | 61 | 224 | 4.0 | 8.0 | 0.02 | 0.05 | 0.04 | 95 | 1010.7 |
| 20260506131532 | 61 | 197 | 3.0 | 6.0 | 0.01 | 0.04 | 0.03 | 94 | 1010.7 |
| 20260506130559 | 61 | 158 | 4.0 | 7.0 | 0.01 | 0.03 | 0.02 | 92 | 1010.8 |
| 20260506125523 | 62 | 175 | 5.0 | 7.0 | 0.01 | 0.03 | 0.02 | 90 | 1010.8 |
| 20260506124528 | 62 | 206 | 5.0 | 8.0 | 0.01 | 0.03 | 0.02 | 91 | 1010.9 |
| 20260506123515 | 62 | 245 | 5.0 | 7.0 | 0.02 | 0.03 | 0.02 | 90 | 1010.7 |
| 20260506122520 | 61 | 219 | 6.0 | 11.0 | 0.02 | 0.03 | 0.02 | 91 | 1011.0 |
| 20260506121546 | 61 | 198 | 4.0 | 8.0 | 0.02 | 0.03 | 0.02 | 92 | 1011.1 |
| 20260506120543 | 61 | 188 | 4.0 | 7.0 | 0.01 | 0.02 | 0.01 | 92 | 1011.1 |
| 20260506115537 | 60 | 208 | 4.0 | 6.0 | 0.01 | 0.02 | 0.01 | 92 | 1011.2 |
| 20260506114522 | 61 | 193 | 5.0 | 8.0 | 0.01 | 0.02 | 0.01 | 91 | 1011.4 |
| 20260506113520 | 61 | 220 | 3.0 | 7.0 | 0.00 | 0.01 | 0.00 | 90 | 1011.2 |
| 20260506112519 | 62 | 202 | 4.0 | 9.0 | 0.00 | 0.01 | 0.00 | 87 | 1011.3 |
| 20260506111517 | 63 | 195 | 6.0 | 9.0 | 0.00 | 0.01 | 0.00 | 82 | 1011.1 |
| 20260506110537 | 65 | 191 | 6.0 | 9.0 | 0.00 | 0.01 | 0.00 | 77 | 1010.8 |
| 20260506105535 | 65 | 217 | 7.0 | 11.0 | 0.00 | 0.01 | 0.00 | 74 | 1010.5 |
| 20260506104532 | 67 | 214 | 7.0 | 13.0 | 0.00 | 0.01 | 0.00 | 69 | 1010.4 |
| 20260506103519 | 67 | 216 | 6.0 | 9.0 | 0.00 | 0.01 | 0.00 | 67 | 1010.1 |
| 20260506102524 | 67 | 217 | 5.0 | 7.0 | 0.00 | 0.01 | 0.00 | 65 | 1010.1 |
| 20260506101529 | 67 | 199 | 4.0 | 6.0 | 0.00 | 0.01 | 0.00 | 65 | 1010.0 |
| 20260506100536 | 68 | 191 | 6.0 | 10.0 | 0.00 | 0.01 | 0.00 | 65 | 1009.9 |
| 20260506095520 | 67 | 188 | 5.0 | 8.0 | 0.00 | 0.01 | 0.00 | 65 | 1009.9 |
| 20260506094525 | 67 | 191 | 6.0 | 12.0 | 0.00 | 0.01 | 0.00 | 65 | 1009.8 |
| 20260506093529 | 68 | 221 | 6.0 | 9.0 | 0.00 | 0.01 | 0.00 | 64 | 1010.0 |
| 20260506092557 | 68 | 216 | 4.0 | 7.0 | 0.00 | 0.01 | 0.00 | 63 | 1010.0 |
| 20260506091521 | 68 | 192 | 7.0 | 10.0 | 0.00 | 0.01 | 0.00 | 62 | 1010.0 |
| 20260506090526 | 68 | 178 | 6.0 | 11.0 | 0.00 | 0.01 | 0.00 | 62 | 1010.1 |
| 20260506085531 | 69 | 213 | 6.0 | 11.0 | 0.00 | 0.01 | 0.00 | 61 | 1010.5 |
| 20260506084517 | 69 | 206 | 5.0 | 8.0 | 0.00 | 0.01 | 0.00 | 60 | 1010.4 |
| 20260506083522 | 69 | 186 | 7.0 | 12.0 | 0.00 | 0.01 | 0.00 | 59 | 1010.5 |
| 20260506082527 | 69 | 181 | 6.0 | 15.0 | 0.00 | 0.01 | 0.00 | 58 | 1010.5 |
| 20260506081532 | 69 | 215 | 6.0 | 10.0 | 0.00 | 0.01 | 0.00 | 58 | 1010.4 |
| 20260506080519 | 70 | 219 | 8.0 | 13.0 | 0.00 | 0.01 | 0.00 | 57 | 1010.4 |
| 20260506072519 | 70 | 197 | 7.0 | 9.0 | 0.00 | 0.01 | 0.00 | 57 | 1010.6 |
| 20260506071524 | 70 | 210 | 6.0 | 9.0 | 0.00 | 0.01 | 0.00 | 57 | 1010.7 |
| 20260506070529 | 70 | 182 | 5.0 | 8.0 | 0.00 | 0.01 | 0.00 | 56 | 1010.8 |
| 20260506061517 | 0 | 0.0 | 0.0 | 0.00 | 0.01 | 0.00 | 1011.5 | ||
| 20260506060523 | 71 | 186 | 7.0 | 12.0 | 0.00 | 0.01 | 0.00 | 54 | 1011.4 |
| 20260506050532 | 71 | 168 | 6.0 | 9.0 | 0.00 | 0.01 | 0.00 | 52 | 1012.2 |
| 20260506044524 | 70 | 206 | 7.0 | 11.0 | 0.00 | 0.01 | 0.00 | 52 | 1012.1 |
| 20260506043529 | 70 | 161 | 5.0 | 7.0 | 0.00 | 0.01 | 0.00 | 52 | 1012.2 |
| 20260506042535 | 71 | 206 | 6.0 | 10.0 | 0.00 | 0.01 | 0.00 | 51 | 1012.1 |
| 20260506041520 | 71 | 202 | 4.0 | 7.0 | 0.00 | 0.01 | 0.00 | 51 | 1012.1 |
| 20260506040525 | 71 | 226 | 5.0 | 7.0 | 0.00 | 0.01 | 0.00 | 51 | 1012.0 |
| 20260506035524 | 71 | 194 | 4.0 | 7.0 | 0.00 | 0.01 | 0.01 | 50 | 1012.0 |
| 20260506034516 | 71 | 206 | 4.0 | 6.0 | 0.00 | 0.01 | 0.01 | 50 | 1012.2 |
| 20260506033521 | 71 | 207 | 4.0 | 6.0 | 0.00 | 0.01 | 0.01 | 49 | 1012.0 |
| 20260506032520 | 72 | 197 | 5.0 | 7.0 | 0.00 | 0.01 | 0.01 | 48 | 1011.9 |
| 20260506031519 | 72 | 198 | 6.0 | 10.0 | 0.00 | 0.01 | 0.01 | 47 | 1012.0 |
| 20260506030517 | 72 | 196 | 6.0 | 9.0 | 0.00 | 0.01 | 0.01 | 47 | 1012.0 |
| 20260506025517 | 72 | 200 | 6.0 | 10.0 | 0.00 | 0.01 | 0.01 | 47 | 1012.1 |
| 20260506024547 | 72 | 184 | 5.0 | 9.0 | 0.00 | 0.01 | 0.01 | 47 | 1012.1 |
| 20260506023532 | 72 | 184 | 5.0 | 10.0 | 0.00 | 0.01 | 0.01 | 47 | 1012.1 |
| 20260506022519 | 72 | 179 | 5.0 | 8.0 | 0.00 | 0.01 | 0.01 | 47 | 1012.2 |
| 20260506021523 | 72 | 206 | 6.0 | 12.0 | 0.00 | 0.01 | 0.01 | 47 | 1012.2 |
| 20260506020529 | 72 | 177 | 7.0 | 10.0 | 0.00 | 0.01 | 0.01 | 47 | 1012.1 |
| 20260506015533 | 73 | 176 | 6.0 | 9.0 | 0.00 | 0.01 | 0.01 | 47 | 1011.9 |
| 20260506014520 | 73 | 167 | 7.0 | 11.0 | 0.00 | 0.01 | 0.01 | 47 | 1011.9 |
| 20260506013524 | 72 | 185 | 4.0 | 7.0 | 0.00 | 0.01 | 0.01 | 48 | 1011.8 |
| 20260506012529 | 73 | 214 | 5.0 | 8.0 | 0.00 | 0.01 | 0.01 | 47 | 1011.6 |
| 20260506011516 | 73 | 183 | 7.0 | 11.0 | 0.00 | 0.01 | 0.01 | 48 | 1011.5 |
| 20260506010541 | 73 | 210 | 4.0 | 8.0 | 0.00 | 0.01 | 0.01 | 49 | 1011.5 |